Weather in Shedok

Russia / Krasnodar Krai     44°12′57″N   40°50′44″E
temp.,
°C
wind,
m/s
gust,
m/s
humid.,
%
clouds,
%
prec.,
mm/h
press.,
hPa
HPBL,
m
26 october, tue
tue2600:00−2s22955 0.0 103319
03:00−3s22925 0.0 103421
06:00−5s22915 0.0 103428
09:00+1se12740 0.0 1033187
12:00+6ne22644 0.0 1031642
15:00+7ene22644 0.0 1029747
18:00+1se11904 0.0 103115
21:00−1s22940 0.0 103119
27 october, wed
wed2700:00−2s22914 0.0 103017
03:00−2s22864 0.0 102918
06:00−2s22823 0.0 102820
09:00+6ssw11590 0.0 1026104
12:00+12nnw12430 0.0 1023450
15:00+12n22480 0.0 1023545
18:00+4ssw21810 0.0 102511
21:00+3ssw22880 0.0 102517
28 october, thu
thu2800:00+3ssw22880 0.0 102513
03:00+2ssw22850 0.0 102514
06:00+1ssw22850 0.0 102613
09:00+7ssw116612 0.0 1026143
12:00+10n215575 0.0 1024706
15:00+10n2260100 0.0 1024807
18:00+6nne1189100 0.0 102510
21:00+6ssw1192100 0.0 102621
29 october, fri
fri2900:00+5ssw119293 0.0 102524
03:00+4ssw2293100 0.0 102518
06:00+4ssw2288100 0.0 102620
09:00+8ssw126795 0.0 1026167
12:00+12nw345173 0.0 1024909
15:00+11nnw346158 0.0 1025775
18:00+8nne1180100 0.0 102829
21:00+7e118898 0.0 102811
30 october, sat
sat3000:00+5sse11935 0.0 102910
03:00+4sse119411 0.0 103011
06:00+4se128976 0.0 103164
09:00+7se24720 0.0 1031352
12:00+11ene44530 0.0 1029913
15:00+11ene56500 0.0 1029813
18:00+5e35700 0.0 1031143
21:00+3sse11830 0.0 103113